Time,TemperatureF,DewpointF,PressureIn,WindDirection,WindDirectionDegrees,WindSpeedMPH,WindSpeedGustMPH,Humidity,HourlyPrecipIn,Conditions,Clouds,dailyrainin,SoftwareType,DateUTC
2013-03-05 00:00:00,28.6,22.3,29.94,WNW,294,8.0,8.0,77,0.00,,,0.00,Wunderground v.1.15,2013-03-05 05:00:00,
2013-03-05 00:05:00,28.6,22.3,29.94,WNW,292,6.0,9.0,77,0.00,,,0.00,Wunderground v.1.15,2013-03-05 05:05:00,
2013-03-05 00:15:00,28.6,22.3,29.95,WNW,288,6.0,28.0,77,0.00,,,0.00,Wunderground v.1.15,2013-03-05 05:15:00,
2013-03-05 00:20:00,28.6,22.3,29.95,West,273,7.0,28.0,77,0.00,,,0.00,Wunderground v.1.15,2013-03-05 05:20:00,
2013-03-05 00:25:00,28.7,22.4,29.95,West,273,6.0,28.0,77,0.00,,,0.00,Wunderground v.1.15,2013-03-05 05:25:00,
2013-03-05 00:30:00,28.6,22.3,29.95,WNW,294,7.0,28.0,77,0.00,,,0.00,Wunderground v.1.15,2013-03-05 05:30:00,
2013-03-05 00:35:00,28.6,22.3,29.96,WNW,303,6.0,28.0,77,0.00,,,0.00,Wunderground v.1.15,2013-03-05 05:35:00,
2013-03-05 00:40:00,28.5,22.2,29.96,WNW,300,5.0,5.0,77,0.00,,,0.00,Wunderground v.1.15,2013-03-05 05:40:00,
2013-03-05 00:45:00,28.5,22.2,29.96,WNW,300,4.0,28.0,77,0.00,,,0.00,Wunderground v.1.15,2013-03-05 05:45:00,
2013-03-05 00:55:00,28.6,22.3,29.96,West,271,5.0,28.0,77,0.00,,,0.00,Wunderground v.1.15,2013-03-05 05:55:00,
2013-03-05 01:00:00,28.7,22.4,29.96,West,273,6.0,6.0,77,0.00,,,0.00,Wunderground v.1.15,2013-03-05 06:00:00,
2013-03-05 01:05:00,28.7,22.4,29.96,West,275,5.0,28.0,77,0.00,,,0.00,Wunderground v.1.15,2013-03-05 06:05:00,
2013-03-05 01:10:00,28.8,22.2,29.97,WNW,302,5.0,5.0,76,0.00,,,0.00,Wunderground v.1.15,2013-03-05 06:10:00,
2013-03-05 01:15:00,28.8,22.2,29.97,WNW,286,4.0,28.0,76,0.00,,,0.00,Wunderground v.1.15,2013-03-05 06:15:00,
2013-03-05 01:20:00,28.8,22.5,29.97,WNW,299,4.0,4.0,77,0.00,,,0.00,Wunderground v.1.15,2013-03-05 06:20:00,
2013-03-05 01:30:00,28.8,22.5,29.97,WNW,286,4.0,28.0,77,0.00,,,0.00,Wunderground v.1.15,2013-03-05 06:30:00,
2013-03-05 01:35:00,28.8,22.5,29.97,WNW,287,5.0,28.0,77,0.00,,,0.00,Wunderground v.1.15,2013-03-05 06:35:00,
2013-03-05 01:40:00,28.8,22.5,29.97,WNW,286,3.0,3.0,77,0.00,,,0.00,Wunderground v.1.15,2013-03-05 06:40:00,
2013-03-05 01:45:00,28.8,22.5,29.97,WNW,286,1.0,28.0,77,0.00,,,0.00,Wunderground v.1.15,2013-03-05 06:45:00,
2013-03-05 01:50:00,28.8,22.5,29.97,NW,306,1.0,1.0,77,0.00,,,0.00,Wunderground v.1.15,2013-03-05 06:50:00,
2013-03-05 01:55:00,28.8,22.5,29.97,WNW,284,3.0,4.0,77,0.00,,,0.00,Wunderground v.1.15,2013-03-05 06:55:00,
2013-03-05 02:00:00,28.8,22.8,29.97,West,271,3.0,3.0,78,0.00,,,0.00,Wunderground v.1.15,2013-03-05 07:00:00,
2013-03-05 02:10:00,28.8,22.8,29.97,West,279,3.0,3.0,78,0.00,,,0.00,Wunderground v.1.15,2013-03-05 07:10:00,
2013-03-05 02:15:00,28.8,22.8,29.97,WNW,283,3.0,5.0,78,0.00,,,0.00,Wunderground v.1.15,2013-03-05 07:15:00,
2013-03-05 02:20:00,28.8,22.8,29.97,NW,306,4.0,28.0,78,0.00,,,0.00,Wunderground v.1.15,2013-03-05 07:20:00,
2013-03-05 02:25:00,28.8,22.8,29.97,West,281,4.0,28.0,78,0.00,,,0.00,Wunderground v.1.15,2013-03-05 07:25:00,
2013-03-05 02:30:00,28.7,22.7,29.97,West,279,5.0,5.0,78,0.00,,,0.00,Wunderground v.1.15,2013-03-05 07:30:00,
2013-03-05 02:35:00,28.7,23.0,29.97,WNW,292,4.0,28.0,79,0.00,,,0.00,Wunderground v.1.15,2013-03-05 07:35:00,
2013-03-05 02:45:00,28.7,23.0,29.97,SSW,205,5.0,28.0,79,0.00,,,0.00,Wunderground v.1.15,2013-03-05 07:45:00,
2013-03-05 02:55:00,28.6,22.9,29.97,West,267,4.0,28.0,79,0.00,,,0.00,Wunderground v.1.15,2013-03-05 07:55:00,
2013-03-05 03:00:00,28.6,22.9,29.97,WSW,244,3.0,3.0,79,0.00,,,0.00,Wunderground v.1.15,2013-03-05 08:00:00,
2013-03-05 03:05:00,28.6,22.9,29.98,WSW,240,3.0,6.0,79,0.00,,,0.00,Wunderground v.1.15,2013-03-05 08:05:00,
2013-03-05 03:10:00,28.6,22.9,29.98,West,277,4.0,28.0,79,0.00,,,0.00,Wunderground v.1.15,2013-03-05 08:10:00,
2013-03-05 03:15:00,28.6,22.9,29.98,NW,304,5.0,28.0,79,0.00,,,0.00,Wunderground v.1.15,2013-03-05 08:15:00,
2013-03-05 03:20:00,28.5,22.8,29.98,West,263,4.0,28.0,79,0.00,,,0.00,Wunderground v.1.15,2013-03-05 08:20:00,
2013-03-05 03:30:00,28.5,23.1,29.98,West,265,5.0,28.0,80,0.00,,,0.00,Wunderground v.1.15,2013-03-05 08:30:00,
2013-03-05 03:35:00,28.5,23.1,29.99,WNW,293,5.0,28.0,80,0.00,,,0.00,Wunderground v.1.15,2013-03-05 08:35:00,
2013-03-05 03:40:00,28.4,23.0,29.99,WNW,284,5.0,5.0,80,0.00,,,0.00,Wunderground v.1.15,2013-03-05 08:40:00,
2013-03-05 03:45:00,28.4,23.0,29.99,WNW,296,5.0,7.0,80,0.00,,,0.00,Wunderground v.1.15,2013-03-05 08:45:00,
2013-03-05 03:50:00,28.4,23.0,29.99,WSW,258,6.0,28.0,80,0.00,,,0.00,Wunderground v.1.15,2013-03-05 08:50:00,
2013-03-05 03:55:00,28.3,23.2,30.00,West,271,7.0,28.0,81,0.00,,,0.00,Wunderground v.1.15,2013-03-05 08:55:00,
2013-03-05 04:00:00,28.3,23.2,30.00,SSW,207,6.0,28.0,81,0.00,,,0.00,Wunderground v.1.15,2013-03-05 09:00:00,
2013-03-05 04:10:00,28.3,23.2,30.00,WSW,252,7.0,7.0,81,0.00,,,0.00,Wunderground v.1.15,2013-03-05 09:10:00,
2013-03-05 04:15:00,28.3,23.2,30.01,West,259,5.0,7.0,81,0.00,,,0.00,Wunderground v.1.15,2013-03-05 09:15:00,
2013-03-05 04:20:00,28.3,23.2,30.01,WNW,284,5.0,5.0,81,0.00,,,0.00,Wunderground v.1.15,2013-03-05 09:20:00,
2013-03-05 04:30:00,28.3,23.2,30.01,West,270,5.0,5.0,81,0.00,,,0.00,Wunderground v.1.15,2013-03-05 09:30:00,
2013-03-05 04:35:00,28.3,23.2,30.01,WNW,284,5.0,5.0,81,0.00,,,0.00,Wunderground v.1.15,2013-03-05 09:35:00,
2013-03-05 04:40:00,28.2,23.1,30.01,West,279,5.0,9.0,81,0.00,,,0.00,Wunderground v.1.15,2013-03-05 09:40:00,
2013-03-05 04:45:00,28.2,23.1,30.01,West,271,5.0,9.0,81,0.00,,,0.00,Wunderground v.1.15,2013-03-05 09:45:00,
2013-03-05 04:50:00,28.2,23.1,30.01,WNW,302,6.0,12.0,81,0.00,,,0.00,Wunderground v.1.15,2013-03-05 09:50:00,
2013-03-05 04:55:00,28.2,23.1,30.02,WNW,291,6.0,12.0,81,0.00,,,0.00,Wunderground v.1.15,2013-03-05 09:55:00,
2013-03-05 05:05:00,28.1,23.0,30.02,WNW,283,4.0,10.0,81,0.00,,,0.00,Wunderground v.1.15,2013-03-05 10:05:00,
2013-03-05 05:10:00,28.2,23.1,30.02,WNW,299,6.0,14.0,81,0.00,,,0.00,Wunderground v.1.15,2013-03-05 10:10:00,
2013-03-05 05:15:00,28.1,23.0,30.02,West,268,7.0,14.0,81,0.00,,,0.00,Wunderground v.1.15,2013-03-05 10:15:00,
2013-03-05 05:20:00,28.1,23.0,30.02,West,278,6.0,14.0,81,0.00,,,0.00,Wunderground v.1.15,2013-03-05 10:20:00,
2013-03-05 05:25:00,28.1,23.0,30.02,West,260,6.0,14.0,81,0.00,,,0.00,Wunderground v.1.15,2013-03-05 10:25:00,
2013-03-05 05:30:00,28.1,23.0,30.02,WNW,286,6.0,6.0,81,0.00,,,0.00,Wunderground v.1.15,2013-03-05 10:30:00,
2013-03-05 05:40:00,28.1,23.0,30.02,NW,319,5.0,14.0,81,0.00,,,0.00,Wunderground v.1.15,2013-03-05 10:40:00,
2013-03-05 05:50:00,28.1,23.0,30.02,West,276,5.0,14.0,81,0.00,,,0.00,Wunderground v.1.15,2013-03-05 10:50:00,
2013-03-05 05:55:00,28.1,23.0,30.01,West,268,5.0,14.0,81,0.00,,,0.00,Wunderground v.1.15,2013-03-05 10:55:00,
2013-03-05 06:00:00,28.1,23.0,30.02,WNW,294,4.0,14.0,81,0.00,,,0.00,Wunderground v.1.15,2013-03-05 11:00:00,
2013-03-05 06:05:00,28.1,23.0,30.02,WNW,292,4.0,14.0,81,0.00,,,0.00,Wunderground v.1.15,2013-03-05 11:05:00,
2013-03-05 06:10:00,28.1,23.0,30.02,WSW,252,3.0,3.0,81,0.00,,,0.00,Wunderground v.1.15,2013-03-05 11:10:00,
2013-03-05 06:15:00,28.1,23.0,30.03,WSW,258,3.0,4.0,81,0.00,,,0.00,Wunderground v.1.15,2013-03-05 11:15:00,
2013-03-05 06:25:00,28.1,23.0,30.03,SW,233,4.0,14.0,81,0.00,,,0.00,Wunderground v.1.15,2013-03-05 11:25:00,
2013-03-05 06:30:00,28.1,23.0,30.03,West,278,3.0,14.0,81,0.00,,,0.00,Wunderground v.1.15,2013-03-05 11:30:00,
2013-03-05 06:35:00,28.1,23.0,30.03,WNW,297,4.0,14.0,81,0.00,,,0.00,Wunderground v.1.15,2013-03-05 11:35:00,
2013-03-05 06:40:00,28.1,23.0,30.04,West,275,5.0,14.0,81,0.00,,,0.00,Wunderground v.1.15,2013-03-05 11:40:00,
2013-03-05 06:45:00,28.1,23.0,30.04,WNW,291,4.0,14.0,81,0.00,,,0.00,Wunderground v.1.15,2013-03-05 11:45:00,
2013-03-05 06:50:00,28.2,23.1,30.04,WNW,302,2.0,2.0,81,0.00,,,0.00,Wunderground v.1.15,2013-03-05 11:50:00,
2013-03-05 06:55:00,28.2,23.1,30.05,West,279,3.0,5.0,81,0.00,,,0.00,Wunderground v.1.15,2013-03-05 11:55:00,
2013-03-05 07:05:00,28.2,23.1,30.05,West,260,6.0,14.0,81,0.00,,,0.00,Wunderground v.1.15,2013-03-05 12:05:00,
2013-03-05 07:10:00,28.2,23.1,30.05,WNW,283,7.0,14.0,81,0.00,,,0.00,Wunderground v.1.15,2013-03-05 12:10:00,
2013-03-05 07:15:00,28.3,23.2,30.05,WNW,285,6.0,14.0,81,0.00,,,0.00,Wunderground v.1.15,2013-03-05 12:15:00,
2013-03-05 07:20:00,28.3,23.2,30.06,West,271,6.0,6.0,81,0.00,,,0.00,Wunderground v.1.15,2013-03-05 12:20:00,
2013-03-05 07:25:00,28.3,23.2,30.06,WNW,296,6.0,14.0,81,0.00,,,0.00,Wunderground v.1.15,2013-03-05 12:25:00,
2013-03-05 07:30:00,28.4,23.3,30.06,WNW,283,6.0,6.0,81,0.00,,,0.00,Wunderground v.1.15,2013-03-05 12:30:00,
2013-03-05 07:35:00,28.5,23.4,30.06,WNW,290,6.0,7.0,81,0.00,,,0.00,Wunderground v.1.15,2013-03-05 12:35:00,
2013-03-05 07:45:00,28.7,23.6,30.06,West,279,4.0,14.0,81,0.00,,,0.00,Wunderground v.1.15,2013-03-05 12:45:00,
2013-03-05 07:50:00,28.8,23.7,30.07,WSW,245,4.0,14.0,81,0.00,,,0.00,Wunderground v.1.15,2013-03-05 12:50:00,
2013-03-05 07:55:00,28.9,23.8,30.07,West,281,4.0,14.0,81,0.00,,,0.00,Wunderground v.1.15,2013-03-05 12:55:00,
2013-03-05 08:00:00,29.0,23.6,30.07,WNW,300,5.0,5.0,80,0.00,,,0.00,Wunderground v.1.15,2013-03-05 13:00:00,
2013-03-05 08:05:00,29.0,23.6,30.07,West,281,5.0,14.0,80,0.00,,,0.00,Wunderground v.1.15,2013-03-05 13:05:00,
2013-03-05 08:10:00,29.1,23.7,30.07,WNW,284,5.0,5.0,80,0.00,,,0.00,Wunderground v.1.15,2013-03-05 13:10:00,
2013-03-05 08:20:00,29.3,23.6,30.07,NW,314,6.0,6.0,79,0.00,,,0.00,Wunderground v.1.15,2013-03-05 13:20:00,
2013-03-05 08:25:00,29.4,23.7,30.07,WSW,242,6.0,14.0,79,0.00,,,0.00,Wunderground v.1.15,2013-03-05 13:25:00,
2013-03-05 08:30:00,29.6,23.9,30.08,WNW,286,4.0,4.0,79,0.00,,,0.00,Wunderground v.1.15,2013-03-05 13:30:00,
2013-03-05 08:35:00,29.7,23.7,30.08,West,275,3.0,5.0,78,0.00,,,0.00,Wunderground v.1.15,2013-03-05 13:35:00,
2013-03-05 08:40:00,29.9,23.9,30.08,NW,306,4.0,14.0,78,0.00,,,0.00,Wunderground v.1.15,2013-03-05 13:40:00,
2013-03-05 08:45:00,30.0,23.7,30.08,NW,304,6.0,14.0,77,0.00,,,0.00,Wunderground v.1.15,2013-03-05 13:45:00,
2013-03-05 08:50:00,30.1,23.8,30.08,WNW,289,8.0,8.0,77,0.00,,,0.00,Wunderground v.1.15,2013-03-05 13:50:00,
2013-03-05 09:00:00,30.7,23.7,30.08,West,272,7.0,14.0,75,0.00,,,0.00,Wunderground v.1.15,2013-03-05 14:00:00,
2013-03-05 09:05:00,30.7,23.4,30.08,WNW,292,8.0,14.0,74,0.00,,,0.00,Wunderground v.1.15,2013-03-05 14:05:00,
2013-03-05 09:10:00,30.7,23.4,30.08,NW,304,9.0,14.0,74,0.00,,,0.00,Wunderground v.1.15,2013-03-05 14:10:00,
2013-03-05 09:15:00,30.6,23.3,30.08,NW,321,9.0,14.0,74,0.00,,,0.00,Wunderground v.1.15,2013-03-05 14:15:00,
2013-03-05 09:20:00,30.6,23.3,30.08,WNW,288,10.0,10.0,74,0.00,,,0.00,Wunderground v.1.15,2013-03-05 14:20:00,
2013-03-05 09:25:00,30.8,23.5,30.08,NW,312,10.0,14.0,74,0.00,,,0.00,Wunderground v.1.15,2013-03-05 14:25:00,
2013-03-05 09:35:00,31.2,23.9,30.08,NNW,329,7.0,14.0,74,0.00,,,0.00,Wunderground v.1.15,2013-03-05 14:35:00,
2013-03-05 09:40:00,31.2,23.9,30.08,West,279,8.0,14.0,74,0.00,,,0.00,Wunderground v.1.15,2013-03-05 14:40:00,
2013-03-05 09:45:00,31.3,24.0,30.08,WNW,292,7.0,14.0,74,0.00,,,0.00,Wunderground v.1.15,2013-03-05 14:45:00,
2013-03-05 09:50:00,31.5,24.2,30.08,West,279,6.0,14.0,74,0.00,,,0.00,Wunderground v.1.15,2013-03-05 14:50:00,
2013-03-05 09:55:00,31.6,23.9,30.08,WSW,255,5.0,14.0,73,0.00,,,0.00,Wunderground v.1.15,2013-03-05 14:55:00,
2013-03-05 10:00:00,31.8,24.5,30.08,West,259,5.0,5.0,74,0.00,,,0.00,Wunderground v.1.15,2013-03-05 15:00:00,
2013-03-05 10:10:00,32.4,24.7,30.08,NNW,329,4.0,14.0,73,0.00,,,0.00,Wunderground v.1.15,2013-03-05 15:10:00,
2013-03-05 10:15:00,32.8,25.1,30.08,NNE,26,3.0,14.0,73,0.00,,,0.00,Wunderground v.1.15,2013-03-05 15:15:00,
2013-03-05 10:20:00,33.2,25.1,30.07,WNW,288,2.0,14.0,72,0.00,,,0.00,Wunderground v.1.15,2013-03-05 15:20:00,
2013-03-05 10:25:00,33.5,25.1,30.07,WNW,299,2.0,14.0,71,0.00,,,0.00,Wunderground v.1.15,2013-03-05 15:25:00,
2013-03-05 10:30:00,33.7,25.0,30.07,WNW,284,2.0,14.0,70,0.00,,,0.00,Wunderground v.1.15,2013-03-05 15:30:00,
2013-03-05 10:35:00,33.7,25.0,30.07,WNW,299,4.0,14.0,70,0.00,,,0.00,Wunderground v.1.15,2013-03-05 15:35:00,
2013-03-05 10:40:00,33.8,25.0,30.08,NNW,327,3.0,3.0,70,0.00,,,0.00,Wunderground v.1.15,2013-03-05 15:40:00,
2013-03-05 10:50:00,34.2,25.8,30.08,NNW,340,1.0,14.0,71,0.00,,,0.00,Wunderground v.1.15,2013-03-05 15:50:00,
2013-03-05 10:55:00,34.4,25.6,30.08,NNW,330,1.0,14.0,70,0.00,,,0.00,Wunderground v.1.15,2013-03-05 15:55:00,
2013-03-05 11:00:00,34.5,25.7,30.08,WNW,298,2.0,14.0,70,0.00,,,0.00,Wunderground v.1.15,2013-03-05 16:00:00,
2013-03-05 11:05:00,34.2,24.7,30.08,WNW,299,3.0,14.0,68,0.00,,,0.00,Wunderground v.1.15,2013-03-05 16:05:00,
2013-03-05 11:10:00,34.0,25.2,30.08,North,351,3.0,3.0,70,0.00,,,0.00,Wunderground v.1.15,2013-03-05 16:10:00,
2013-03-05 11:15:00,34.4,25.6,30.07,North,10,2.0,14.0,70,0.00,,,0.00,Wunderground v.1.15,2013-03-05 16:15:00,
2013-03-05 11:25:00,35.2,26.0,30.07,NNW,347,3.0,14.0,69,0.00,,,0.00,Wunderground v.1.15,2013-03-05 16:25:00,
2013-03-05 11:30:00,36.0,26.8,30.07,NNW,328,3.0,14.0,69,0.00,,,0.00,Wunderground v.1.15,2013-03-05 16:30:00,
2013-03-05 11:35:00,37.0,27.1,30.07,NW,323,3.0,14.0,67,0.00,,,0.00,Wunderground v.1.15,2013-03-05 16:35:00,
2013-03-05 11:40:00,37.2,27.2,30.07,NNW,338,3.0,14.0,67,0.00,,,0.00,Wunderground v.1.15,2013-03-05 16:40:00,
2013-03-05 11:45:00,37.4,26.7,30.07,NNE,32,3.0,14.0,65,0.00,,,0.00,Wunderground v.1.15,2013-03-05 16:45:00,
2013-03-05 11:50:00,37.5,26.8,30.07,NW,323,3.0,14.0,65,0.00,,,0.00,Wunderground v.1.15,2013-03-05 16:50:00,
2013-03-05 11:55:00,37.6,26.9,30.07,NW,326,4.0,14.0,65,0.00,,,0.00,Wunderground v.1.15,2013-03-05 16:55:00,
2013-03-05 12:05:00,37.8,26.7,30.07,NW,309,3.0,14.0,64,0.00,,,0.00,Wunderground v.1.15,2013-03-05 17:05:00,
2013-03-05 12:10:00,37.9,27.2,30.07,NW,319,4.0,4.0,65,0.00,,,0.00,Wunderground v.1.15,2013-03-05 17:10:00,
2013-03-05 12:15:00,38.0,27.3,30.07,NW,325,3.0,14.0,65,0.00,,,0.00,Wunderground v.1.15,2013-03-05 17:15:00,
2013-03-05 12:20:00,38.2,27.1,30.06,WNW,286,3.0,14.0,64,0.00,,,0.00,Wunderground v.1.15,2013-03-05 17:20:00,
2013-03-05 12:25:00,37.9,26.8,30.06,NW,326,4.0,14.0,64,0.00,,,0.00,Wunderground v.1.15,2013-03-05 17:25:00,
2013-03-05 12:30:00,37.9,27.2,30.06,NW,326,4.0,14.0,65,0.00,,,0.00,Wunderground v.1.15,2013-03-05 17:30:00,
2013-03-05 12:35:00,38.2,27.5,30.06,NNW,327,4.0,14.0,65,0.00,,,0.00,Wunderground v.1.15,2013-03-05 17:35:00,
2013-03-05 12:40:00,37.7,26.6,30.06,NNW,345,5.0,5.0,64,0.00,,,0.00,Wunderground v.1.15,2013-03-05 17:40:00,
2013-03-05 12:50:00,38.2,27.1,30.06,West,274,4.0,4.0,64,0.00,,,0.00,Wunderground v.1.15,2013-03-05 17:50:00,
2013-03-05 12:55:00,38.1,27.0,30.06,North,349,3.0,14.0,64,0.00,,,0.00,Wunderground v.1.15,2013-03-05 17:55:00,
2013-03-05 13:00:00,38.4,27.7,30.06,NNW,342,2.0,14.0,65,0.00,,,0.00,Wunderground v.1.15,2013-03-05 18:00:00,
2013-03-05 13:05:00,38.9,27.0,30.06,West,276,2.0,14.0,62,0.00,,,0.00,Wunderground v.1.15,2013-03-05 18:05:00,
2013-03-05 13:15:00,39.1,27.2,30.06,NW,306,5.0,14.0,62,0.00,,,0.00,Wunderground v.1.15,2013-03-05 18:15:00,
2013-03-05 13:25:00,39.7,28.1,30.06,NNW,334,4.0,14.0,63,0.00,,,0.00,Wunderground v.1.15,2013-03-05 18:25:00,
2013-03-05 13:30:00,40.3,27.9,30.06,West,274,3.0,14.0,61,0.00,,,0.00,Wunderground v.1.15,2013-03-05 18:30:00,
2013-03-05 13:35:00,40.4,28.0,30.05,West,281,4.0,14.0,61,0.00,,,0.00,Wunderground v.1.15,2013-03-05 18:35:00,
2013-03-05 13:40:00,40.5,27.7,30.05,NNW,339,4.0,14.0,60,0.00,,,0.00,Wunderground v.1.15,2013-03-05 18:40:00,
2013-03-05 13:45:00,40.5,27.7,30.05,WNW,296,5.0,14.0,60,0.00,,,0.00,Wunderground v.1.15,2013-03-05 18:45:00,
2013-03-05 13:50:00,40.7,28.3,30.05,WNW,302,4.0,4.0,61,0.00,,,0.00,Wunderground v.1.15,2013-03-05 18:50:00,
2013-03-05 14:00:00,40.6,27.8,30.05,NW,324,3.0,14.0,60,0.00,,,0.00,Wunderground v.1.15,2013-03-05 19:00:00,
2013-03-05 14:05:00,40.5,27.3,30.05,NW,319,4.0,14.0,59,0.00,,,0.00,Wunderground v.1.15,2013-03-05 19:05:00,
2013-03-05 14:10:00,40.5,28.1,30.05,WNW,295,4.0,14.0,61,0.00,,,0.00,Wunderground v.1.15,2013-03-05 19:10:00,
2013-03-05 14:15:00,40.6,27.4,30.05,WNW,288,4.0,14.0,59,0.00,,,0.00,Wunderground v.1.15,2013-03-05 19:15:00,
2013-03-05 14:20:00,40.6,27.8,30.05,NNW,331,3.0,3.0,60,0.00,,,0.00,Wunderground v.1.15,2013-03-05 19:20:00,
2013-03-05 14:25:00,40.7,28.7,30.05,WNW,293,4.0,6.0,62,0.00,,,0.00,Wunderground v.1.15,2013-03-05 19:25:00,
2013-03-05 14:30:00,41.1,27.9,30.05,NW,324,4.0,14.0,59,0.00,,,0.00,Wunderground v.1.15,2013-03-05 19:30:00,
2013-03-05 14:40:00,40.2,27.0,30.05,WNW,298,3.0,14.0,59,0.00,,,0.00,Wunderground v.1.15,2013-03-05 19:40:00,
2013-03-05 14:45:00,40.1,27.7,30.05,NW,318,4.0,14.0,61,0.00,,,0.00,Wunderground v.1.15,2013-03-05 19:45:00,
2013-03-05 14:50:00,40.8,28.4,30.05,WNW,294,4.0,14.0,61,0.00,,,0.00,Wunderground v.1.15,2013-03-05 19:50:00,
2013-03-05 14:55:00,41.3,28.4,30.06,WNW,287,4.0,14.0,60,0.00,,,0.00,Wunderground v.1.15,2013-03-05 19:55:00,
2013-03-05 15:00:00,41.5,28.2,30.06,North,360,5.0,5.0,59,0.00,,,0.00,Wunderground v.1.15,2013-03-05 20:00:00,
2013-03-05 15:05:00,41.7,28.0,30.05,East,89,3.0,14.0,58,0.00,,,0.00,Wunderground v.1.15,2013-03-05 20:05:00,
2013-03-05 15:15:00,42.1,29.2,30.06,NNW,338,2.0,5.0,60,0.00,,,0.00,Wunderground v.1.15,2013-03-05 20:15:00,
2013-03-05 15:20:00,42.2,28.5,30.06,NE,55,2.0,2.0,58,0.00,,,0.00,Wunderground v.1.15,2013-03-05 20:20:00,
2013-03-05 15:25:00,42.2,28.9,30.06,ENE,64,2.0,9.0,59,0.00,,,0.00,Wunderground v.1.15,2013-03-05 20:25:00,
2013-03-05 15:30:00,41.9,28.2,30.06,ENE,58,2.0,2.0,58,0.00,,,0.00,Wunderground v.1.15,2013-03-05 20:30:00,
2013-03-05 15:35:00,41.9,28.6,30.06,ENE,69,2.0,5.0,59,0.00,,,0.00,Wunderground v.1.15,2013-03-05 20:35:00,
2013-03-05 15:40:00,41.6,28.3,30.06,NE,40,2.0,14.0,59,0.00,,,0.00,Wunderground v.1.15,2013-03-05 20:40:00,
2013-03-05 15:50:00,41.4,28.5,30.06,NNE,19,3.0,3.0,60,0.00,,,0.00,Wunderground v.1.15,2013-03-05 20:50:00,
2013-03-05 15:55:00,40.9,27.7,30.06,NE,54,3.0,7.0,59,0.00,,,0.00,Wunderground v.1.15,2013-03-05 20:55:00,
2013-03-05 16:00:00,40.5,27.7,30.06,North,11,4.0,14.0,60,0.00,,,0.00,Wunderground v.1.15,2013-03-05 21:00:00,
2013-03-05 16:05:00,40.5,28.9,30.06,NNE,18,2.0,14.0,63,0.00,,,0.00,Wunderground v.1.15,2013-03-05 21:05:00,
2013-03-05 16:10:00,40.4,27.6,30.06,ENE,76,3.0,14.0,60,0.00,,,0.00,Wunderground v.1.15,2013-03-05 21:10:00,
2013-03-05 16:15:00,40.3,27.9,30.06,NE,34,3.0,14.0,61,0.00,,,0.00,Wunderground v.1.15,2013-03-05 21:15:00,
2013-03-05 16:20:00,40.4,28.4,30.06,NNE,17,2.0,2.0,62,0.00,,,0.00,Wunderground v.1.15,2013-03-05 21:20:00,
2013-03-05 16:30:00,40.2,28.2,30.06,WNW,302,2.0,2.0,62,0.00,,,0.00,Wunderground v.1.15,2013-03-05 21:30:00,
2013-03-05 16:35:00,39.9,27.1,30.06,NNE,33,2.0,14.0,60,0.00,,,0.00,Wunderground v.1.15,2013-03-05 21:35:00,
2013-03-05 16:40:00,39.7,27.3,30.06,ENE,59,2.0,2.0,61,0.00,,,0.00,Wunderground v.1.15,2013-03-05 21:40:00,
2013-03-05 16:45:00,39.3,27.7,30.06,NNE,24,2.0,14.0,63,0.00,,,0.00,Wunderground v.1.15,2013-03-05 21:45:00,
2013-03-05 16:55:00,38.9,27.4,30.06,ENE,61,1.0,2.0,63,0.00,,,0.00,Wunderground v.1.15,2013-03-05 21:55:00,
2013-03-05 17:00:00,38.8,27.7,30.07,NE,40,1.0,1.0,64,0.00,,,0.00,Wunderground v.1.15,2013-03-05 22:00:00,
2013-03-05 17:05:00,38.5,27.4,30.06,ENE,68,2.0,2.0,64,0.00,,,0.00,Wunderground v.1.15,2013-03-05 22:05:00,
2013-03-05 17:10:00,38.3,27.6,30.06,NNW,348,2.0,2.0,65,0.00,,,0.00,Wunderground v.1.15,2013-03-05 22:10:00,
2013-03-05 17:15:00,38.1,27.4,30.06,NE,42,1.0,2.0,65,0.00,,,0.00,Wunderground v.1.15,2013-03-05 22:15:00,
2013-03-05 17:20:00,37.8,27.1,30.06,NE,35,1.0,1.0,65,0.00,,,0.00,Wunderground v.1.15,2013-03-05 22:20:00,
2013-03-05 17:25:00,37.7,27.0,30.06,NE,55,2.0,2.0,65,0.00,,,0.00,Wunderground v.1.15,2013-03-05 22:25:00,
2013-03-05 17:35:00,37.2,27.2,30.06,NNE,16,1.0,12.0,67,0.00,,,0.00,Wunderground v.1.15,2013-03-05 22:35:00,
2013-03-05 17:40:00,36.8,27.2,30.06,NE,48,0.0,12.0,68,0.00,,,0.00,Wunderground v.1.15,2013-03-05 22:40:00,
2013-03-05 17:45:00,36.4,27.2,30.07,NE,48,0.0,12.0,69,0.00,,,0.00,Wunderground v.1.15,2013-03-05 22:45:00,
2013-03-05 17:50:00,36.0,27.2,30.07,NE,47,0.0,12.0,70,0.00,,,0.00,Wunderground v.1.15,2013-03-05 22:50:00,
2013-03-05 17:55:00,35.5,26.7,30.07,North,360,0.0,12.0,70,0.00,,,0.00,Wunderground v.1.15,2013-03-05 22:55:00,
2013-03-05 18:00:00,35.2,26.7,30.07,NNW,339,0.0,12.0,71,0.00,,,0.00,Wunderground v.1.15,2013-03-05 23:00:00,
2013-03-05 18:05:00,34.7,26.6,30.07,NNW,344,0.0,12.0,72,0.00,,,0.00,Wunderground v.1.15,2013-03-05 23:05:00,
2013-03-05 18:15:00,34.0,26.3,30.07,NNW,344,0.0,12.0,73,0.00,,,0.00,Wunderground v.1.15,2013-03-05 23:15:00,
2013-03-05 18:20:00,33.7,26.3,30.07,NE,38,0.0,12.0,74,0.00,,,0.00,Wunderground v.1.15,2013-03-05 23:20:00,
2013-03-05 18:25:00,33.4,26.3,30.07,NE,38,0.0,12.0,75,0.00,,,0.00,Wunderground v.1.15,2013-03-05 23:25:00,
2013-03-05 18:30:00,33.2,26.1,30.07,NE,38,0.0,12.0,75,0.00,,,0.00,Wunderground v.1.15,2013-03-05 23:30:00,
2013-03-05 18:35:00,33.0,26.3,30.07,NE,48,1.0,12.0,76,0.00,,,0.00,Wunderground v.1.15,2013-03-05 23:35:00,
2013-03-05 18:45:00,33.2,26.5,30.06,ENE,59,2.0,12.0,76,0.00,,,0.00,Wunderground v.1.15,2013-03-05 23:45:00,
2013-03-05 18:50:00,33.2,26.5,30.06,NE,42,2.0,2.0,76,0.00,,,0.00,Wunderground v.1.15,2013-03-05 23:50:00,
2013-03-05 18:55:00,33.1,26.4,30.06,NE,36,2.0,12.0,76,0.00,,,0.00,Wunderground v.1.15,2013-03-05 23:55:00,
2013-03-05 19:00:00,33.0,26.3,30.06,NE,53,1.0,1.0,76,0.00,,,0.00,Wunderground v.1.15,2013-03-06 00:00:00,
2013-03-05 19:05:00,32.8,26.4,30.07,ENE,58,1.0,12.0,77,0.00,,,0.00,Wunderground v.1.15,2013-03-06 00:05:00,
2013-03-05 19:15:00,32.6,26.5,30.07,NE,51,1.0,4.0,78,0.00,,,0.00,Wunderground v.1.15,2013-03-06 00:15:00,
2013-03-05 19:20:00,32.4,26.3,30.07,NNE,32,0.0,12.0,78,0.00,,,0.00,Wunderground v.1.15,2013-03-06 00:20:00,
2013-03-05 19:25:00,32.3,26.2,30.07,NE,35,0.0,12.0,78,0.00,,,0.00,Wunderground v.1.15,2013-03-06 00:25:00,
2013-03-05 19:30:00,32.2,26.1,30.07,ENE,66,1.0,12.0,78,0.00,,,0.00,Wunderground v.1.15,2013-03-06 00:30:00,
2013-03-05 19:40:00,32.2,26.4,30.08,NE,52,1.0,1.0,79,0.00,,,0.00,Wunderground v.1.15,2013-03-06 00:40:00,
2013-03-05 19:50:00,32.1,26.0,30.08,NE,48,1.0,1.0,78,0.00,,,0.00,Wunderground v.1.15,2013-03-06 00:50:00,
2013-03-05 19:55:00,32.1,26.0,30.08,NE,42,1.0,12.0,78,0.00,,,0.00,Wunderground v.1.15,2013-03-06 00:55:00,
2013-03-05 20:00:00,32.1,26.3,30.08,NE,34,1.0,1.0,79,0.00,,,0.00,Wunderground v.1.15,2013-03-06 01:00:00,
2013-03-05 20:05:00,31.9,26.1,30.08,NE,34,0.0,12.0,79,0.00,,,0.00,Wunderground v.1.15,2013-03-06 01:05:00,
2013-03-05 20:10:00,31.9,26.1,30.08,NE,34,0.0,12.0,79,0.00,,,0.00,Wunderground v.1.15,2013-03-06 01:10:00,
2013-03-05 20:15:00,31.8,26.0,30.08,NE,34,0.0,12.0,79,0.00,,,0.00,Wunderground v.1.15,2013-03-06 01:15:00,
2013-03-05 20:25:00,31.5,26.0,30.08,NE,40,0.0,12.0,80,0.00,,,0.00,Wunderground v.1.15,2013-03-06 01:25:00,
2013-03-05 20:30:00,31.4,25.9,30.08,NE,40,0.0,12.0,80,0.00,,,0.00,Wunderground v.1.15,2013-03-06 01:30:00,
2013-03-05 20:35:00,31.4,25.9,30.08,NE,40,0.0,12.0,80,0.00,,,0.00,Wunderground v.1.15,2013-03-06 01:35:00,
2013-03-05 20:40:00,31.4,25.9,30.08,NE,40,0.0,12.0,80,0.00,,,0.00,Wunderground v.1.15,2013-03-06 01:40:00,
2013-03-05 20:45:00,31.5,26.0,30.08,NW,313,0.0,12.0,80,0.00,,,0.00,Wunderground v.1.15,2013-03-06 01:45:00,
2013-03-05 20:50:00,31.5,26.0,30.08,NW,313,0.0,12.0,80,0.00,,,0.00,Wunderground v.1.15,2013-03-06 01:50:00,
2013-03-05 20:55:00,31.5,26.0,30.08,NW,312,0.0,12.0,80,0.00,,,0.00,Wunderground v.1.15,2013-03-06 01:55:00,
2013-03-05 21:05:00,31.6,26.4,30.09,NNW,338,0.0,12.0,81,0.00,,,0.00,Wunderground v.1.15,2013-03-06 02:05:00,
2013-03-05 21:10:00,31.6,26.4,30.09,NNW,338,0.0,12.0,81,0.00,,,0.00,Wunderground v.1.15,2013-03-06 02:10:00,
2013-03-05 21:15:00,31.7,26.2,30.10,NNW,338,0.0,12.0,80,0.00,,,0.00,Wunderground v.1.15,2013-03-06 02:15:00,
2013-03-05 21:20:00,31.7,26.5,30.10,NNW,338,0.0,12.0,81,0.00,,,0.00,Wunderground v.1.15,2013-03-06 02:20:00,
2013-03-05 21:25:00,31.7,26.5,30.10,NNW,338,0.0,12.0,81,0.00,,,0.00,Wunderground v.1.15,2013-03-06 02:25:00,
2013-03-05 21:30:00,31.7,26.5,30.10,NNW,338,0.0,12.0,81,0.00,,,0.00,Wunderground v.1.15,2013-03-06 02:30:00,
2013-03-05 21:40:00,31.8,26.6,30.10,NNW,338,0.0,12.0,81,0.00,,,0.00,Wunderground v.1.15,2013-03-06 02:40:00,
2013-03-05 21:45:00,31.8,26.6,30.10,NNW,338,0.0,12.0,81,0.00,,,0.00,Wunderground v.1.15,2013-03-06 02:45:00,
2013-03-05 21:50:00,31.7,26.5,30.10,NNW,338,0.0,12.0,81,0.00,,,0.00,Wunderground v.1.15,2013-03-06 02:50:00,
2013-03-05 21:55:00,31.7,26.5,30.10,NNW,338,0.0,12.0,81,0.00,,,0.00,Wunderground v.1.15,2013-03-06 02:55:00,
2013-03-05 22:00:00,31.6,26.4,30.10,North,360,0.0,12.0,81,0.00,,,0.00,Wunderground v.1.15,2013-03-06 03:00:00,
2013-03-05 22:05:00,31.6,26.4,30.09,North,360,0.0,12.0,81,0.00,,,0.00,Wunderground v.1.15,2013-03-06 03:05:00,
2013-03-05 22:10:00,31.4,26.2,30.09,North,360,0.0,12.0,81,0.00,,,0.00,Wunderground v.1.15,2013-03-06 03:10:00,
2013-03-05 22:20:00,31.0,25.9,30.08,North,360,0.0,12.0,81,0.00,,,0.00,Wunderground v.1.15,2013-03-06 03:20:00,
2013-03-05 22:25:00,30.7,25.6,30.08,North,360,0.0,12.0,81,0.00,,,0.00,Wunderground v.1.15,2013-03-06 03:25:00,
2013-03-05 22:30:00,30.4,25.6,30.08,North,360,0.0,12.0,82,0.00,,,0.00,Wunderground v.1.15,2013-03-06 03:30:00,
2013-03-05 22:35:00,30.2,25.4,30.08,North,360,0.0,12.0,82,0.00,,,0.00,Wunderground v.1.15,2013-03-06 03:35:00,
2013-03-05 22:40:00,30.0,25.5,30.08,North,360,0.0,12.0,83,0.00,,,0.00,Wunderground v.1.15,2013-03-06 03:40:00,
2013-03-05 22:45:00,29.9,25.4,30.08,North,360,0.0,12.0,83,0.00,,,0.00,Wunderground v.1.15,2013-03-06 03:45:00,
2013-03-05 22:50:00,29.8,25.3,30.07,North,360,0.0,12.0,83,0.00,,,0.00,Wunderground v.1.15,2013-03-06 03:50:00,
2013-03-05 23:00:00,29.4,24.9,30.07,North,360,0.0,12.0,83,0.00,,,0.00,Wunderground v.1.15,2013-03-06 04:00:00,
2013-03-05 23:05:00,29.3,25.1,30.07,North,360,0.0,12.0,84,0.00,,,0.00,Wunderground v.1.15,2013-03-06 04:05:00,
2013-03-05 23:10:00,29.2,25.0,30.07,North,5,0.0,12.0,84,0.00,,,0.00,Wunderground v.1.15,2013-03-06 04:10:00,
2013-03-05 23:15:00,29.0,24.8,30.07,North,5,0.0,12.0,84,0.00,,,0.00,Wunderground v.1.15,2013-03-06 04:15:00,
2013-03-05 23:20:00,29.0,25.1,30.07,North,355,0.0,12.0,85,0.00,,,0.00,Wunderground v.1.15,2013-03-06 04:20:00,
2013-03-05 23:25:00,28.9,25.0,30.07,North,355,0.0,12.0,85,0.00,,,0.00,Wunderground v.1.15,2013-03-06 04:25:00,
2013-03-05 23:35:00,28.8,25.1,30.07,North,355,0.0,12.0,86,0.00,,,0.00,Wunderground v.1.15,2013-03-06 04:35:00,
2013-03-05 23:40:00,28.7,24.8,30.07,North,355,0.0,12.0,85,0.00,,,0.00,Wunderground v.1.15,2013-03-06 04:40:00,
2013-03-05 23:45:00,28.6,24.7,30.07,North,355,0.0,12.0,85,0.00,,,0.00,Wunderground v.1.15,2013-03-06 04:45:00,
2013-03-05 23:50:00,28.4,24.5,30.07,North,355,0.0,12.0,85,0.00,,,0.00,Wunderground v.1.15,2013-03-06 04:50:00,
2013-03-05 23:55:00,28.3,24.6,30.07,North,355,0.0,12.0,86,0.00,,,0.00,Wunderground v.1.15,2013-03-06 04:55:00,